www.pogodaiklimat.ru

Архив погоды в Щецине (Польша)

Время
(UTC), дата
16 21.05
17 21.05
18 21.05
19 21.05
20 21.05
21 21.05
22 21.05
23 21.05
00 22.05
01 22.05
02 22.05
03 22.05
04 22.05
05 22.05
06 22.05
07 22.05
08 22.05
09 22.05
10 22.05
11 22.05
12 22.05
13 22.05
14 22.05
15 22.05
16 22.05
17 22.05
18 22.05
19 22.05
20 22.05
21 22.05
22 22.05
23 22.05
00 23.05
01 23.05
02 23.05
03 23.05
04 23.05
05 23.05
06 23.05
07 23.05
08 23.05
09 23.05
10 23.05
11 23.05
12 23.05
13 23.05
14 23.05
15 23.05
16 23.05
17 23.05
18 23.05
19 23.05
20 23.05
21 23.05
22 23.05
23 23.05
00 24.05
01 24.05
02 24.05
03 24.05
04 24.05
05 24.05
06 24.05
07 24.05
08 24.05
09 24.05
10 24.05
11 24.05
12 24.05
13 24.05
14 24.05
15 24.05
16 24.05
17 24.05
18 24.05
19 24.05
20 24.05
21 24.05
22 24.05
23 24.05
00 25.05
01 25.05
02 25.05
03 25.05
04 25.05
05 25.05
06 25.05
07 25.05
08 25.05
09 25.05
10 25.05
11 25.05
12 25.05
13 25.05
14 25.05
15 25.05
16 25.05
17 25.05
18 25.05
19 25.05
20 25.05
21 25.05
22 25.05
23 25.05
00 26.05
01 26.05
02 26.05
03 26.05
04 26.05
05 26.05
06 26.05
07 26.05
08 26.05
09 26.05
10 26.05
11 26.05
12 26.05
13 26.05
14 26.05
15 26.05
16 26.05
17 26.05
18 26.05
19 26.05
20 26.05
21 26.05
22 26.05
23 26.05
00 27.05
01 27.05
02 27.05
03 27.05
04 27.05
05 27.05
06 27.05
07 27.05
08 27.05
09 27.05
10 27.05
11 27.05
12 27.05
13 27.05
14 27.05
15 27.05
16 27.05
17 27.05
18 27.05
19 27.05
20 27.05
21 27.05
22 27.05
23 27.05
00 28.05
01 28.05
02 28.05
03 28.05
04 28.05
05 28.05
06 28.05
07 28.05
08 28.05
09 28.05
10 28.05
11 28.05
12 28.05
13 28.05
14 28.05
15 28.05
16 28.05
17 28.05
Ветер
(напр.,м/с)
Видим. Явления Облачность Т
(С)
Тd
(С)
f
(%)
Тe
(С)
Тes
(С)
Комфортность P
(гПа)
Po
(гПа)
Тmin
(С)
Tmax
(С)
R
(мм)
R24
(мм)
S
(см)
В 4 35 км 5/3 1500 м
[Cu med, cong Ci sp]
+25.7 +10.3 38 +27 +28 жарко 1010.2 1009.3
В 2 {7} 35 км 6/1 1500 м
[Cu med, cong Ci sp]
+25.1 +12.0 44 +27 +28 жарко 1010.1 1009.2
СВ 2 {8} 30 км 6/0
[Ci sp]
+23.1 +16.2 65 +28 +28 душно 1010.3 1009.4 +15.6 +26.2
СВ 2 28 км 6/0
[Ci sp]
+21.4 +15.7 70 +25 +25 комфорт 1010.3 1009.4
СВ 2 30 км 6/0
[Ci sp]
+20.3 +15.3 73 +24 +24 комфорт 1010.4 1009.5
В 3 30 км н/о +20.7 +13.4 63 +24 +24 комфорт 1010.6 1009.7
В 3 30 км н/о +19.4 +13.6 69 +21 +21 комфорт 1010.4 1009.5
В 2 30 км н/о +19.3 +13.9 71 +21 +21 комфорт 1010.1 1009.2
В 2 27 км н/о +18.2 +13.7 75 +19 +19 1009.8 1008.9
В 2 26 км н/о +17.7 +13.8 78 +18 +18 1009.6 1008.7
В 2 23 км н/о +16.5 +13.6 83 +17 +17 1009.2 1008.3
В 2 21 км н/о +15.2 +12.5 84 +15 +15 1009.1 1008.2
В 2 22 км н/о +17.3 +13.6 79 +18 +18 1009.0 1008.1
В 3 25 км 9/0
[Ac As]
+18.0 +13.7 76 +18 +19 1008.9 1008.0
В 3 25 км 9/0
[Ac As]
+18.7 +13.8 73 +20 +21 1008.9 1008.0 +14.9 +23.1
В 3 28 км 9/0
[Ac As]
+19.9 +14.0 69 +22 +24 комфорт 1008.8 1007.9
В 3 30 км 8/0
[Ac As]
+21.6 +14.3 63 +25 +28 комфорт 1008.7 1007.8
В 5 28 км 8/0
[Ac As]
+23.1 +15.2 61 +27 +30 душно 1008.8 1007.9
В 5 {10} 27 км 8/0
[Ac As]
+24.6 +14.7 54 +27 +31 жарко 1008.5 1007.6
В 6-11 {13} 25 км 9/0
[Ac As]
+24.5 +14.3 53 +27 +29 жарко 1008.4 1007.5
В 4 {13} 25 км 9/0
[Ac As]
+25.0 +14.5 52 +28 +31 жарко 1007.9 1007.0
В 5 30 км в посл. час ливневой дождь 9/5 2000 м
[Cb calv Ac As]
+24.5 +14.9 55 +27 +29 жарко 1007.6 1006.7
В 3 {9} 25 км 8/5 1500 м
[Cb calv Ci sp]
+25.7 +15.4 53 +29 +33 душно 1006.7 1005.8
В 4 {9} 25 км {ливн. дождь} 8/5 1500 м
[Cb calv Ci sp]
+26.6 +15.3 50 +29 +32 жарко 1006.5 1005.6
В 7 {12} 28 км 8/8 1500 м
[Cb calv]
+26.1 +14.9 50 +29 +29 жарко 1006.5 1005.6
ЮВ 8 {13} 25 км гроза без осадков {ливн. дождь} 10/10 1500 м
[Cb cap]
+21.5 +15.1 67 +25 +25 комфорт 1007.0 1006.1
В 3 {13} 12 км гроза, ливневой дождь 10/10 2000 м
[Cb cap]
+18.2 +16.0 87 +19 +19 1008.4 1007.5 +18.2 +26.7 0.9
ЮВ 4 15 км слаб. ливневой дождь 10/10 1500 м
[Cb cap]
+18.0 +16.5 91 +18 +18 1009.1 1008.2
ЮВ 4 17 км в посл. час ливневой дождь 9/9 2000 м
[Cb cap]
+17.7 +16.7 94 +17 +17 1009.4 1008.5
ЮВ 4 18 км слаб. ливневой дождь н/о +17.5 +16.5 94 +17 +17 1009.4 1008.5
СВ 1 7000 м слаб. дождь н/о +17.3 +16.8 97 +18 +18 1009.5 1008.6
В 2 11 км в посл. час дождь н/о +17.5 +16.9 96 +18 +18 1009.6 1008.7
В 2 7000 м в посл. час дождь н/о +17.4 +16.8 96 +18 +18 1009.5 1008.6 2
В 3 8000 м дымка н/о +17.1 +16.6 97 +17 +17 1009.4 1008.5
Ю 3 7000 м слаб. дождь н/о +17.0 +16.5 97 +17 +17 1009.8 1008.9
ЮЗ 2 16 км слаб. дождь н/о +16.2 +15.7 97 +16 +16 1010.1 1009.2
ЮЗ 3 6000 м дождь н/о +15.6 +15.1 97 +15 +15 1010.5 1009.6
Ю 2 5000 м слаб. дождь 10/9 100 м
[Frnb As op]
+15.3 +15.0 98 +15 +15 1010.9 1010.0
ЮЗ 3 8000 м слаб. дождь 10/9 100 м
[Frnb As op]
+15.6 +15.3 98 +15 +15 1011.3 1010.4 +15.3 +18.2 12 12.5
З 3 8000 м слаб. дождь 10/9 100 м
[Frnb As op]
+15.9 +15.1 95 +15 +15 1011.6 1010.7
ЮЗ 3 8000 м слаб. дождь 10/9 100 м
[Frnb As op]
+15.4 +14.8 96 +15 +15 1012.2 1011.3
З 3 8000 м в посл. час дождь 10/10 100 м
[St]
+15.4 +14.4 94 +15 +15 1012.7 1011.8
З 3 12 км 10/10 300 м
[Sc]
+16.0 +14.2 89 +16 +16 1013.2 1012.3
ЮЗ 4 {8} 10 км 10/10 600 м
[Sc]
+16.3 +15.0 92 +16 +16 1013.8 1012.9
З 4 {8} 22 км {дождь} 10/10 600 м
[Cu Sc]
+17.7 +14.0 79 +17 +17 1014.2 1013.3 0.6
З 2 23 км 10/10 600 м
[Cu Sc]
+18.2 +14.1 77 +19 +19 1014.4 1013.5
СВ 1 17 км 10/10 1000 м
[Sc]
+18.1 +14.6 80 +19 +19 1014.7 1013.8
В 1 15 км в посл. час ливневой дождь 9/9 1000 м
[Cb calv]
+17.4 +15.2 87 +18 +19 1015.1 1014.2
СВ 1 14 км в посл. час ливневой дождь 9/9 1000 м
[Cb calv]
+18.4 +15.8 85 +20 +21 1015.3 1014.4
ЮВ 2 21 км 6/4 1500 м
[Sc Ci sp]
+19.1 +14.6 75 +21 +22 комфорт 1015.6 1014.7
ЮВ 3 21 км {ливн. дождь} 6/3 1500 м
[Sc Ci sp]
+17.7 +15.0 84 +18 +18 1015.9 1015.0 +15.2 +19.2 0.9
ЮВ 3 15 км 6/3 1500 м
[Sc Ci sp]
+15.8 +14.5 92 +15 +15 1016.6 1015.7
ЮВ 2 10 км 8/4 1500 м
[Sc Ac trans Ci sp]
+15.1 +14.1 94 +15 +15 1017.4 1016.5
С 1 5000 м дымка н/о +14.8 +14.3 97 +15 +15 1017.8 1016.9
В 1 1000 м дымка н/о +13.7 +13.2 97 +14 +14 1018.3 1017.4
В 1 200 м туман н/о +12.7 +12.5 99 +13 +13 1018.5 1017.6
ЮВ 2 500 м туман н/о +12.0 +12.0 100 +11 +11 1018.7 1017.8
В 2 5000 м в посл. час туман н/о +12.7 +12.7 100 +12 +12 1019.2 1018.3
ЮВ 3 500 м туман н/о +11.6 +11.4 99 +10 +10 1019.3 1018.4
В 2 300 м туман н/о +10.5 +10.3 99 +9 +9 1019.6 1018.7
СВ 1 2700 м в посл. час туман н/о +11.3 +11.3 100 +11 +11 1019.8 1018.9
В 2 8000 м дымка 4/0
[Ci sp]
+14.3 +14.0 98 +14 +16 1020.0 1019.1
СВ 1 9000 м дымка 4/0
[Ci sp]
+16.2 +15.1 93 +17 +22 1020.4 1019.5 +10.4 +17.7 0.9
СВ 2 16 км 4/0
[Ci sp]
+18.6 +14.9 79 +20 +27 1020.5 1019.6
СВ 2 25 км 4/0
[Ci sp]
+20.4 +13.4 64 +23 +33 комфорт 1020.6 1019.7
С 2 20 км 4/4 1000 м
[Cu med, cong]
+20.8 +13.5 63 +24 +32 комфорт 1020.6 1019.7
С 2 25 км 5/5 1000 м
[Cu med, cong]
+20.7 +13.6 64 +24 +32 комфорт 1020.6 1019.7
С 3 25 км 5/5 1000 м
[Cu med, cong]
+21.6 +15.2 67 +25 +32 комфорт 1020.5 1019.6
С 4 22 км 5/5 1500 м
[Cu med, cong]
+22.1 +14.5 62 +25 +31 комфорт 1020.1 1019.2
С 5 22 км 5/5 1500 м
[Cu med, cong]
+22.3 +14.7 62 +26 +29 жарко 1019.7 1018.8
С 3 30 км 5/5 1500 м
[Cu med, cong]
+22.4 +14.5 61 +26 +30 жарко 1019.4 1018.5
СВ 4 30 км 4/4 1500 м
[Cu med, cong]
+22.9 +14.7 60 +27 +30 душно 1019.0 1018.1
С 5 26 км 4/4 1500 м
[Cu med, cong]
+22.5 +13.6 57 +26 +27 жарко 1018.8 1017.9
С 5 30 км 5/1 1500 м
[Sc diur, vesp Ci sp]
+21.6 +13.5 60 +24 +25 комфорт 1018.6 1017.7
СВ 4 30 км 5/3 1500 м
[Sc diur, vesp Ci sp]
+20.5 +13.5 64 +23 +23 комфорт 1018.5 1017.6 +16.2 +23.0
СВ 4 {9} 30 км 4/0
[Ac trans]
+19.2 +12.7 66 +20 +20 1018.5 1017.6
С 4 30 км 4/0
[Ac trans]
+18.2 +12.6 70 +18 +18 1018.3 1017.4
С 4 {9} 29 км н/о +17.4 +11.9 70 +17 +17 1018.1 1017.2
СВ 4 28 км н/о +16.8 +12.1 74 +16 +16 1017.7 1016.8
В 1 35 км слаб. морось н/о +16.4 +13.5 83 +17 +17 1018.0 1017.1
В 1 {9} 27 км в посл. час осадки н/о +16.2 +14.0 87 +17 +17 1018.0 1017.1 0.0
В 3 26 км н/о +16.1 +14.1 88 +16 +16 1017.7 1016.8
В 2 21 км н/о +15.2 +14.1 93 +15 +15 1017.5 1016.6
В 3 10 км н/о +15.0 +14.2 95 +14 +14 1017.4 1016.5
В 3 14 км н/о +15.6 +14.5 93 +15 +15 1017.3 1016.4
ЮВ 4 9000 м дымка 10/10 200 м
[St]
+16.0 +14.9 93 +15 +15 1017.5 1016.6
ЮВ 3 9000 м дымка 10/10 200 м
[St]
+16.6 +15.1 91 +16 +16 1017.6 1016.7 +14.9 +20.5 0.0 0.0
ЮВ 3 9000 м дымка 10/10 300 м
[Sc]
+17.5 +15.3 87 +17 +17 1017.7 1016.8
ЮВ 4 18 км 8/8 600 м
[Sc]
+19.2 +15.3 78 +21 +22 комфорт 1018.0 1017.1
Ю 4 22 км 6/6 600 м
[Cu hum]
+20.6 +15.2 71 +24 +27 комфорт 1018.3 1017.4
ЮВ 5 25 км 6/6 1000 м
[Cu hum]
+22.1 +15.0 64 +26 +29 душно 1018.6 1017.7
Ю 3 25 км 6/6 1000 м
[Cu med, cong]
+22.8 +14.4 59 +26 +32 жарко 1018.6 1017.7
Ю 3 25 км 6/6 1000 м
[Cu med, cong]
+24.0 +15.0 57 +27 +32 жарко 1018.2 1017.3
Ю 3 28 км 6/6 1000 м
[Cb calv]
+24.4 +14.5 54 +27 +31 жарко 1017.9 1017.0
ЮВ 3 25 км в посл. час ливневой дождь 8/8 1000 м
[Cb calv]
+22.7 +15.5 64 +27 +29 душно 1018.0 1017.1
Ю 2 25 км {ливн. дождь} 6/6 1000 м
[Cb calv]
+23.5 +15.3 60 +26 +29 жарко 1017.9 1017.0
В 2 30 км 6/5 1500 м
[Cb calv Ci ing]
+23.9 +13.7 53 +26 +28 жарко 1017.4 1016.5
С 2 28 км 8/3 1500 м
[Cb calv Ac trans Ci sp]
+22.5 +14.9 62 +26 +27 жарко 1017.5 1016.6
СВ 1 28 км {ливн. дождь} 8/3 1500 м
[Cb cap Ac trans Ci sp]
+21.9 +16.4 71 +26 +26 душно 1017.9 1017.0 +16.6 +24.5 0.0
СВ 2 23 км 8/5 1500 м
[Cb cap Ac trans]
+21.1 +16.1 73 +24 +24 комфорт 1018.3 1017.4
В 2 30 км зарница 8/5 1500 м
[Cb cap Ac trans]
+20.1 +13.3 65 +23 +23 комфорт 1018.6 1017.7
СВ 1 30 км н/о +18.4 +13.9 75 +20 +20 1018.7 1017.8
В 2 24 км н/о +17.6 +13.5 77 +18 +18 1018.7 1017.8
В 2 26 км н/о +16.6 +13.7 83 +17 +17 1018.4 1017.5
Ю 1 16 км н/о +14.5 +13.2 92 +15 +15 1018.4 1017.5 0.0
ЮЗ 1 9000 м дымка н/о +13.6 +12.7 94 +14 +14 1018.5 1017.6
В 2 23 км н/о +13.8 +13.3 97 +13 +13 1018.4 1017.5
В 2 23 км н/о +14.3 +13.5 95 +14 +14 1018.3 1017.4
СВ 1 23 км н/о +15.0 +14.2 95 +15 +15 1018.5 1017.6
ЮВ 2 22 км 6/0
[Ac trans Ci fib]
+16.2 +14.9 92 +16 +18 1018.9 1018.0
ЮВ 3 28 км 3/0
[Ci fib]
+19.5 +15.6 78 +22 +25 комфорт 1019.1 1018.2 +12.8 +21.9 0.0 0.0
ЮЗ 2 26 км 3/0
[Ci fib]
+21.1 +15.4 70 +24 +31 комфорт 1019.1 1018.2
ЮЗ 2 29 км 4/0
[Ci fib]
+22.1 +15.7 67 +26 +36 душно 1019.0 1018.1
ЮВ 2 26 км 6/1 600 м
[Cu hum Ci fib]
+23.0 +15.8 64 +27 +38 душно 1018.9 1018.0
ЮВ 5 28 км 4/1 600 м
[Cu hum Ci fib]
+23.9 +14.6 56 +27 +33 жарко 1018.9 1018.0
ЮВ 5 26 км 4/1 1000 м
[Cu med, cong Ci sp]
+24.6 +14.7 54 +27 +34 жарко 1018.9 1018.0
ЮВ 5 24 км 6/4 1000 м
[Cu med, cong Ci sp]
+25.4 +14.2 50 +28 +32 жарко 1018.8 1017.9
Ю 4 29 км 6/4 1500 м
[Cu med, cong Ci sp]
+26.4 +14.5 48 +29 +34 жарко 1018.3 1017.4
ЮВ 4 29 км 6/4 1500 м
[Cu med, cong Ci sp]
+25.0 +14.2 51 +27 +32 жарко 1017.7 1016.8
Ю 3 30 км 6/4 1500 м
[Cu med, cong Ci sp]
+25.6 +14.7 51 +28 +32 жарко 1017.4 1016.5
Ю 4 30 км 9/9 1000 м
[Cb calv]
+24.2 +14.0 53 +27 +27 жарко 1017.6 1016.7
ЮВ 5 30 км 8/5 1000 м
[Cb calv Ac cuf]
+23.4 +14.7 58 +27 +28 душно 1017.8 1016.9
ЮВ 3 28 км 6/0
[Ac cuf Ci sp]
+21.1 +14.7 67 +24 +24 комфорт 1018.1 1017.2 +19.5 +26.4
В 5 29 км 6/0
[Ac trans Ci sp]
+19.2 +14.5 74 +20 +20 1018.4 1017.5
ЮВ 5 23 км 6/0
[Ac trans Ci sp]
+18.7 +15.2 80 +19 +19 1018.6 1017.7
В 5 26 км н/о +17.7 +14.8 83 +17 +17 1018.4 1017.5
В 5 22 км н/о +17.2 +14.8 86 +17 +17 1018.6 1017.7
В 3 22 км слаб. дождь н/о +17.2 +15.0 87 +17 +17 1018.6 1017.7
ЮВ 4 25 км н/о +17.4 +14.5 83 +17 +17 1018.4 1017.5 0.0
В 1 26 км н/о +17.2 +14.5 84 +18 +18 1017.8 1016.9
В 2 26 км н/о +18.1 +14.2 78 +19 +19 1017.8 1016.9
В 2 23 км н/о +17.7 +14.8 83 +18 +18 1017.9 1017.0
В 3 22 км н/о +17.7 +15.1 85 +18 +18 1017.9 1017.0
В 3 20 км 8/0
[Ac trans Ci sp]
+18.7 +15.4 81 +20 +21 1018.1 1017.2
В 2 22 км 9/5 600 м
[Cu med, cong Ac trans Ci sp]
+19.3 +15.6 79 +22 +23 комфорт 1018.2 1017.3 +16.6 +21.2 0.0 0.0
ЮВ 1 24 км 9/5 600 м
[Cu med, cong Ac trans Ci sp]
+21.1 +15.4 70 +24 +27 комфорт 1018.3 1017.4
ЮВ 3 24 км 9/3 300 м
[Sc diur, vesp Ac As]
+21.7 +15.1 66 +25 +28 комфорт 1018.0 1017.1
ЮВ 4 27 км 9/4 600 м
[Sc Ac As]
+22.9 +15.7 64 +27 +29 душно 1017.8 1016.9
Ю 4 30 км 9/3 600 м
[Cu hum Ac As]
+24.4 +15.9 59 +28 +30 душно 1017.6 1016.7
ЮВ 4 10 км гроза, ливневой дождь 9/9 1000 м
[Cb cap]
+23.5 +15.3 60 +26 +28 жарко 1017.5 1016.6
З 5 24 км в посл. час гроза {ливн. дождь} туман 9/9 1000 м
[Cb cap]
+20.5 +17.1 81 +24 +25 комфорт 1017.1 1016.2 3
В 2 18 км гроза, ливневой дождь 10/10 1000 м
[Cb cap]
+17.9 +16.4 91 +18 +18 1017.5 1016.6
В 2 20 км в посл. час гроза {ливн. дождь} 9/9 1000 м
[Cb calv]
+19.2 +17.5 90 +22 +23 комфорт 1017.4 1016.5
СВ 1 23 км {гроза, ливн. дождь} 9/9 1000 м
[Cb cap]
+19.1 +16.5 85 +22 +23 комфорт 1016.9 1016.0
В 2 10 км слаб. ливневой дождь 9/9 1500 м
[Cb calv]
+18.4 +17.4 94 +20 +20 1016.8 1015.9
В 3 15 км слаб. ливневой дождь 9/9 1500 м
[Cb cap]
+17.6 +16.5 93 +18 +18 1016.7 1015.8
В 3 15 км {гроза, ливн. дождь} 9/9 1500 м
[Cb calv]
+17.2 +16.2 94 +17 +17 1017.2 1016.3 +17.2 +24.8 8
В 5 20 км слаб. ливневой дождь 9/9 1500 м
[Cb calv]
+16.7 +14.7 88 +16 +16 1017.0 1016.1
В 1 10 км слаб. ливневой дождь 9/9 1500 м
[Cb calv]
+16.0 +15.4 96 +17 +17 1016.7 1015.8
штиль 0 6000 м в посл. час дождь н/о +15.8 +15.5 98 +16 +16 1015.8 1014.9
В 4 12 км н/о +15.0 +14.4 96 +14 +14 1015.6 1014.7
В 6 15 км н/о +15.9 +15.3 96 +14 +14 1015.4 1014.5
В 2 16 км н/о +15.7 +14.9 95 +16 +16 1015.1 1014.2 1
В 2 19 км н/о +15.8 +15.0 95 +16 +16 1014.6 1013.7
В 1 4900 м дымка н/о +14.9 +14.4 97 +15 +15 1014.3 1013.4
В 2 20 км н/о +15.2 +14.2 94 +15 +15 1013.9 1013.0
В 2 21 км н/о +15.4 +14.3 93 +15 +15 1013.9 1013.0
ЮВ 2 18 км 9/0
[Ac As]
+16.1 +15.0 93 +16 +17 1014.0 1013.1
ЮЗ 3 18 км 8/5 2000 м
[Sc Ac trans]
+17.3 +15.5 89 +17 +18 1014.0 1013.1 +14.5 +17.4 1 9.6
ЮЗ 2 18 км 9/9 2000 м
[Sc]
+17.6 +15.6 88 +18 +19 1014.1 1013.2
ЮЗ 3 10 км слаб. ливневой дождь 9/9 300 м
[Cb calv]
+16.9 +16.4 97 +17 +18 1014.8 1013.9
ЮЗ 4 9000 м слаб. ливневой дождь 9/9 300 м
[Cb calv]
+17.3 +16.7 96 +17 +18 1015.6 1014.7
З 4 18 км в посл. час ливневой дождь 9/9 600 м
[Cb calv]
+16.6 +15.1 91 +16 +17 1016.1 1015.2
ЮЗ 2 35 км в посл. час ливневой дождь 8/8 600 м
[Cb calv]
+16.5 +14.9 90 +17 +20 1016.9 1016.0
З 4 30 км {ливн. дождь} 6/6 600 м
[Cb calv]
+17.1 +12.2 73 +17 +21 1016.4 1015.5 5
ЮЗ 3 30 км слаб. ливневой дождь 9/9 1000 м
[Cb calv]
+16.8 +12.5 76 +17 +18 1016.9 1016.0
ЮЗ 2 30 км в посл. час ливневой дождь 9/9 600 м
[Cb calv]
+17.1 +13.4 79 +17 +19 1016.7 1015.8
ЮЗ 2 35 км {ливн. дождь} 9/9 600 м
[Cb calv]
+17.6 +13.3 76 +18 +19 1017.1 1016.2
ЮЗ 2 25 км в посл. час ливневой дождь 9/9 1000 м
[Cb calv]
+17.0 +13.3 79 +17 +18 1017.2 1016.3
Ю 1 25 км в посл. час ливневой дождь 9/9 1000 м
[Cb calv]
+16.5 +14.5 88 +17 +18 1017.1 1016.2
Местоположение метеостанции Щецин (Польша): широта 53.40 долгота 14.62 высота над уровнем моря 7 м.
В архиве по умолчанию представлена погода в Щецине за последнюю неделю. Архивные данные за месяц целиком и за предыдущие месяцы, начиная с января 2011 года, Вы можете получить, выбрав интересующий диапазон дат из раскрывающегося списка и нажав кнопку "Найти!".
*Определитесь, кто Вы:
Внимание! Время в таблицах - всемирное. Для получения местного времени необходимо прибавить поправку, которая равна 1 ч.
Некоторые строки с данными для отдельных станций могут быть выделены курсивом. Это означает, что фактические данные отсутствуют по различным причинам, а приведенные значения являются расчетными модельными данными для данного пункта наблюдений.
Смотрите также архив погоды в соседних городах и на ближайших метеорологических станциях:
Партнеры нашего сайта:      
Пояснения к столбцам:
  • Ветер - указаны скорость ветра в м/с - средняя за 10 мин, порывы в срок и между сроками (в фигурных скобках) и направление, откуда дует ветер: С - северный,
  • СВ - северо-восточный, В - восточный, ЮВ - юго-восточный, Ю - южный, ЮЗ - юго-западный, З - западный, СЗ - северо-западный.
  • Видимость - горизонтальная дальность видимости в метрах или километрах. При видимости от 1 до 10 км при отсутствии осадков обычно наблюдается дымка, при ухудшении видимости до 1 км и менее - туман. В сухую погоду видимость может ухудшаться дымом, пылью или мглою.
  • Явления - указаны атмосферные явления, наблюдавшиеся в срок или в последний час перед сроком; фигурными скобками обозначены явления, наблюдавшиеся между сроками (за 1-3 часа до срока); квадратными скобками обозначены град или гололедные отложения с указанием их диаметра в мм.
  • Облачность - указаны через наклонную черту общая и нижняя облачность в баллах и высота нижней границы облаков в метрах; квадратными скобками обозначены формы облаков: Ci - перистые, Cs - перисто-слоистые, Cc - перисто-кучевые, Ac - высококучевые, As - высокослоистые, Sc - слоисто-кучевые, Ns - слоисто-дождевые, Cu - кучевые, Cb - кучево-дождевые. Подробнее классификацию облаков см. в Атласе облаков (PDF).
  • T - Температура воздуха - температура, измеренная на высоте 2 м над землей.
  • Td - Температура точки росы - температура, при понижении до которой содержащийся в воздухе водяной пар достигнет насыщения.
  • f - Относительная влажность воздуха - влажноcть воздуха, измеренная на высоте 2 м над землей.
  • Te - Эффективная температура - температура, которую ощущает одетый по сезону человек в тени. Характеристика душности погоды. При расчете учитывается влияние влажности воздуха и скорости ветра на теплоощущения человека.
  • Tes - Эффективная температура на солнце - температура, которую ощущает человек, с поправкой на солнечный нагрев. Характеристика знойности погоды. Зависит от высоты солнца над горизонтом, облачности и скорости ветра. Ночью, в пасмурную погоду, а также при ветре 12 м/с и более поправка равна нулю.
  • P - Атмосферное давление - приведенное к уровню моря атмосферное давление.
  • Po - Атмосферное давление - измеренное на уровне метеостанции атмосферное давление.
  • Tmin - Минимальная температура - минимум температуры воздуха на высоте 2 м над землей.
  • Tmax - Максимальная температура - максимум температуры воздуха на высоте 2 м над землей.
  • R - Количество осадков - Количество выпавших осадков за период времени, мм. При наведении курсора мыши на число - период времени, за который выпало указанное количество осадков.
  • R24 - Количество осадков - Количество выпавших осадков за 24 часа, мм.
  • S - Снежный покров - Высота снежного покрова, см. При наведении курсора мыши на число - состояние снежного покрова и степень покрытия местности в баллах.